Wind_Speed
14 15 14 12 11 12 12 12 14 13 13 13 12 11 11 11 11 10 12 12 13 12 12 10 10 9 9 8 7 6 6 6 7 8 8 8 10 11 12 12 12 14 14
21 17 15 13 12 12 13 12 14 13 12 13 11 10 10 10 10 10 11 10 10 10 10 9 8 8 8 7 7 5 5 5 6 5 6 6 6 7 7 9 11 12 12
22 18 16 14 13 13 12 12 13 13 13 12 13 11 10 10 10 10 9 9 8 8 7 7 6 6 5 5 5 5 4 4 4 3 3 3 2 6 7 5 9 10 10
22 19 17 15 14 14 14 12 13 12 12 11 10 9 8 8 8 8 7 6 6 5 5 4 5 5 5 5 5 6 5 6 5 6 5 5 3 4 7 6 7 7 10
21 19 17 16 15 15 13 13 12 10 10 10 10 8 7 6 5 5 5 4 3 3 4 4 3 3 4 6 7 8 8 7 6 6 5 8 8 8 7 8 9 10 10
21 19 17 15 15 14 13 13 12 12 10 9 9 8 8 7 7 6 5 4 3 3 3 3 4 4 5 5 5 6 6 7 6 7 6 4 7 6 6 6 7 9 9
23 19 17 16 14 14 13 11 11 10 10 9 9 8 7 6 6 6 5 4 4 5 5 5 5 6 6 6 6 6 7 8 10 10 10 7 6 8 8 9 10 10 11
23 20 18 16 15 13 11 11 10 9 8 8 7 6 6 5 4 5 5 4 4 5 6 7 7 7 8 8 8 8 8 9 11 12 11 11 11 12 10 10 10 11 12
21 21 18 17 15 12 11 10 9 9 8 7 6 6 5 4 4 3 3 4 4 5 6 7 8 8 8 9 9 10 9 10 11 11 11 13 12 13 14 11 12 12 12
21 19 18 17 14 13 11 10 9 8 7 5 5 4 3 3 3 3 3 3 4 5 6 7 8 9 9 10 10 10 11 11 13 13 14 14 13 15 12 10 11 12 11
19 18 17 16 14 12 10 10 8 7 6 5 4 3 3 5 5 5 6 7 6 7 8 8 8 10 11 11 12 11 10 12 14 16 15 15 14 15 14 12 13 14 13
18 19 17 15 14 13 11 9 8 7 6 5 4 4 3 3 4 4 3 5 5 6 8 8 9 10 11 12 12 11 14 14 15 17 17 13 13 15 16 13 14 15 15
22 19 18 17 15 13 11 8 6 6 5 4 2 3 2 0 3 4 3 7 8 8 11 12 11 12 13 14 15 15 16 18 18 17 17 13 13 14 17 13 14 15 16
23 20 18 16 15 12 9 7 6 8 6 4 3 5 3 1 4 5 9 5 7 8 9 9 12 14 15 16 18 17 17 18 17 22 20 16 14 16 16 14 12 12 13
23 21 18 15 13 12 11 7 7 4 6 5 5 4 2 2 2 5 0 4 6 8 10 9 12 14 16 16 18 19 21 20 19 20 20 18 18 16 13 11 11 9 8
25 23 19 14 10 12 13 10 5 3 5 7 7 7 3 4 4 2 3 1 0 5 8 9 8 11 13 14 17 19 22 21 21 19 17 16 15 17 14 11 9 9 7
28 24 21 18 15 13 10 11 7 5 5 5 5 5 6 5 4 2 3 1 3 5 9 8 4 5 5 8 12 12 14 20 20 19 16 15 19 16 14 11 10 9 7
28 28 25 20 18 15 11 9 6 6 7 9 8 9 11 9 3 1 2 3 3 2 1 2 2 4 5 10 16 13 9 13 18 20 18 14 18 17 14 12 11 10 9
30 29 24 21 22 17 11 8 5 3 6 7 9 10 10 10 6 3 5 3 3 2 2 1 3 4 4 12 14 9 7 8 16 16 17 16 17 16 15 14 13 12 12
31 28 23 19 19 18 12 8 5 6 7 9 12 14 12 10 7 6 5 1 2 4 6 2 4 6 5 12 7 6 2 4 7 13 15 15 16 16 15 16 13 14 13
32 28 21 21 20 17 14 8 7 7 6 9 10 11 11 12 9 6 5 2 3 2 3 4 4 5 4 8 3 6 15 6 4 9 12 14 15 17 17 18 15 13 13
34 30 24 23 21 19 16 11 7 4 3 9 11 13 12 13 12 8 5 6 6 6 5 4 2 4 3 5 4 2 3 3 7 2 4 7 13 16 18 15 13 12 14
33 33 29 28 24 22 18 13 9 5 5 5 10 14 15 12 12 10 8 8 8 7 7 6 5 4 4 1 4 2 1 2 3 3 5 4 8 13 13 12 14 14 16
36 35 32 30 26 26 21 18 15 12 9 5 12 12 16 16 15 13 11 11 10 9 9 9 7 7 5 3 3 4 4 3 2 2 2 5 5 3 9 11 13 13 15
33 36 34 32 29 29 27 24 19 18 14 9 7 7 8 17 15 13 14 15 16 12 11 8 11 10 8 7 5 6 5 4 4 3 2 3 2 4 6 6 7 8 7
27 32 35 33 32 30 30 26 22 21 18 12 11 10 7 12 13 12 14 20 21 17 13 11 13 14 13 11 8 11 13 5 4 3 3 4 5 5 7 8 8 7 6
Wind_Direction
162 156 149 147 136 125 118 121 120 121 121 121 118 119 118 115 108 106 105 110 119 123 121 125 131 139 146 154 158 144 121 104 99 93 95 95 102 113 116 117 124 127 127
154 154 151 145 140 125 119 121 117 122 128 123 124 122 119 115 116 117 115 117 121 122 124 121 138 158 167 171 165 156 115 98 100 123 116 100 79 89 117 122 130 129 135
150 149 149 152 140 131 132 127 130 132 129 124 124 125 123 121 123 119 115 113 111 111 118 131 150 170 162 166 166 174 162 151 148 134 147 153 110 117 130 102 130 138 150
148 149 151 145 143 145 143 138 141 137 131 124 124 126 123 125 120 114 113 117 124 130 134 139 158 178 177 180 181 185 189 193 178 173 192 180 179 174 164 156 153 155 165
147 147 147 147 153 151 146 147 147 141 135 138 142 142 143 139 133 132 137 144 153 168 164 181 198 194 189 197 196 194 198 205 207 208 216 229 200 188 184 177 183 183 177
148 149 149 153 156 156 156 157 149 149 153 156 163 169 175 173 167 168 179 180 196 247 248 237 232 240 236 228 217 221 218 218 226 226 228 197 214 203 198 198 187 187 186
153 155 155 156 160 161 162 156 156 151 154 159 167 177 184 186 185 191 197 207 220 233 249 249 245 246 241 244 242 238 233 222 220 220 218 219 214 210 213 212 202 195 184
157 159 161 165 165 165 157 159 158 157 167 174 180 190 199 207 218 222 221 212 222 237 242 246 246 246 247 248 246 237 236 232 223 221 231 232 240 229 226 219 217 212 203
162 164 166 167 166 158 161 163 161 163 169 171 178 187 193 189 195 212 228 231 225 222 229 237 241 241 243 244 246 244 242 240 234 232 244 257 264 230 220 220 217 212 208
169 171 170 166 157 162 166 168 168 166 166 166 172 168 191 198 194 202 221 236 244 240 241 247 250 249 250 251 248 245 245 247 240 247 250 256 265 229 221 226 231 229 223
181 177 173 163 161 164 165 170 170 164 166 179 191 196 247 272 253 247 243 236 244 245 245 251 259 257 254 254 259 258 259 253 246 247 251 257 258 227 227 227 232 230 227
189 184 178 170 163 162 169 173 172 184 198 210 210 230 258 288 226 227 257 250 236 235 250 252 249 258 263 262 260 258 251 247 244 242 251 257 239 229 230 240 239 238 237
179 179 178 173 168 171 177 184 187 199 209 211 237 279 231 286 264 268 267 261 252 254 259 260 264 262 261 258 258 251 249 248 250 250 250 246 231 225 230 242 241 240 242
181 180 181 179 180 186 197 215 225 232 222 225 245 244 251 176 248 275 289 281 275 277 271 270 278 271 262 263 261 257 252 250 253 250 250 250 230 223 232 231 238 246 246
184 182 184 186 198 208 218 245 234 229 216 232 229 251 329 252 258 294 136 339 306 286 282 282 278 277 274 273 268 262 254 256 262 259 253 240 237 237 226 230 227 224 226
188 189 187 189 201 205 212 218 203 228 247 255 233 244 270 272 304 217 335 352 209 290 291 286 292 274 281 286 278 264 258 257 257 257 255 251 236 228 223 218 216 216 209
193 188 187 183 176 183 198 198 216 253 263 238 244 245 229 261 30 58 85 298 252 310 282 255 294 269 253 320 315 285 276 251 260 255 248 230 225 216 218 219 218 224 203
193 191 188 191 192 196 209 208 231 254 236 249 257 248 243 250 235 178 297 99 140 320 45 126 195 239 268 326 324 293 290 250 256 250 239 237 214 213 216 224 226 226 212
195 188 193 201 201 205 209 201 226 258 256 256 247 258 256 256 247 168 126 143 77 43 331 330 328 297 327 345 328 298 264 290 253 243 234 229 215 215 214 222 229 226 213
192 191 196 200 201 200 205 220 238 264 258 249 251 251 251 241 217 210 190 195 45 34 18 330 329 321 331 356 5 9 295 236 226 242 245 230 225 222 221 223 222 214 215
191 192 196 194 195 205 210 214 231 245 267 244 248 223 229 215 220 194 227 223 248 295 283 1 339 316 313 1 136 68 61 105 195 226 242 242 225 228 227 227 215 215 222
192 195 194 192 193 204 209 214 216 256 284 271 218 212 228 223 222 224 241 205 218 262 235 247 287 287 310 3 46 35 11 81 88 52 231 229 234 228 233 231 217 226 218
196 196 197 200 205 210 211 208 216 232 263 237 208 219 223 237 239 224 233 233 242 255 241 250 262 274 276 4 53 116 105 228 343 6 23 341 256 234 238 230 225 230 226
201 201 202 202 208 215 217 215 221 228 238 243 222 242 247 243 243 243 250 250 247 252 254 243 253 276 280 289 114 84 118 149 164 288 20 309 314 243 225 228 235 237 241
201 203 206 206 209 212 217 219 224 226 237 231 243 284 263 223 241 253 261 264 255 252 278 253 283 266 266 262 200 164 159 188 214 102 268 291 245 227 243 229 224 236 243
201 204 208 211 213 214 215 221 227 231 235 245 246 258 259 236 246 267 277 260 251 251 258 272 278 266 260 263 234 219 205 196 192 142 234 242 249 234 224 228 222 229 221
Height
796 798 800 802 803 804 805 806 806 807 808 809 810 811 811 811 812 813 814 815 814 814 814 815 816 816 817 818 817 818 819 819 819 819 819 820 820 821 822 823 825 826 827
794 799 801 802 804 806 806 807 808 809 809 809 811 811 812 813 813 813 814 814 815 815 815 816 816 817 818 819 820 821 822 822 821 821 821 822 823 824 824 825 825 827 829
795 799 802 804 805 806 808 809 809 810 810 810 811 812 813 814 814 815 816 816 816 816 816 817 817 818 820 821 822 822 823 823 823 823 822 823 823 824 825 827 827 828 829
796 800 803 804 806 807 808 810 810 811 812 813 814 815 816 817 817 818 819 818 816 816 817 818 818 819 821 821 822 823 823 823 823 823 823 823 824 825 825 827 827 828 830
798 801 803 805 807 808 809 810 811 814 815 816 815 815 816 817 818 819 820 819 818 818 819 819 820 820 820 820 821 821 821 822 824 824 825 824 824 825 826 828 829 830 832
799 802 805 807 808 809 810 811 813 815 815 815 814 814 815 816 816 817 818 819 819 820 821 821 822 821 821 821 821 823 824 824 825 825 824 824 825 827 828 829 831 832 832
801 804 806 807 810 811 811 813 814 814 815 814 814 814 815 816 816 817 817 818 819 819 820 821 821 821 821 822 822 823 823 823 822 823 823 824 825 825 826 827 829 830 832
802 805 806 808 810 812 814 813 814 814 814 814 815 816 817 817 818 818 817 818 819 820 820 820 821 821 821 821 821 821 821 821 821 821 823 824 825 826 827 828 829 829 831
805 805 806 809 811 813 813 814 814 814 814 815 816 816 817 817 817 817 818 819 819 819 819 819 820 820 820 820 820 820 820 819 821 821 822 823 824 826 827 828 828 830 833
806 807 808 810 812 813 813 813 813 814 815 816 816 817 817 817 817 817 817 818 818 818 818 818 819 819 818 819 818 819 820 820 821 823 823 823 823 825 826 829 829 829 829
808 809 810 811 813 813 813 813 814 815 816 816 817 817 817 818 818 817 815 815 816 817 817 817 817 817 817 817 819 820 821 820 820 820 820 821 822 824 824 825 826 828 827
809 809 811 812 813 812 812 812 814 815 816 816 817 817 817 816 816 816 815 815 815 816 816 817 817 817 818 819 819 819 816 815 816 816 818 819 820 821 823 824 825 826 827
807 809 810 812 813 812 812 813 815 815 816 817 817 817 816 816 815 816 815 814 815 815 815 815 816 817 817 817 816 816 815 815 817 816 816 816 816 818 819 822 822 821 823
807 808 810 812 813 813 812 814 815 815 817 817 818 816 815 816 815 814 814 814 814 815 814 814 813 813 813 813 814 816 816 817 814 815 816 819 819 818 817 818 819 821 821
806 808 810 812 813 813 813 814 814 814 815 816 817 816 816 815 814 812 813 814 814 812 812 811 811 810 811 812 812 811 811 812 814 815 816 816 818 819 818 819 818 819 820
805 807 810 812 813 813 814 815 815 815 815 814 815 816 815 814 813 812 812 813 812 812 810 809 809 808 809 809 808 807 807 810 810 811 812 816 818 817 818 818 818 818 818
803 806 809 811 812 813 814 815 815 816 815 813 814 815 815 814 814 813 812 813 812 812 809 809 809 808 808 808 804 803 803 803 806 807 808 810 811 814 816 816 816 818 818
802 805 808 810 811 812 813 815 815 816 815 814 815 813 814 814 814 813 813 814 812 811 810 810 810 809 809 806 802 800 801 802 803 803 806 808 808 811 814 815 816 816 818
799 803 806 808 809 810 812 814 815 815 814 814 814 813 813 814 814 813 813 813 813 811 810 811 810 809 808 806 802 799 799 800 801 802 803 806 808 808 810 813 815 816 816
798 801 804 805 807 809 812 813 814 814 813 813 812 812 813 813 814 814 814 814 813 812 813 813 812 809 808 806 801 799 798 799 799 802 803 803 806 808 811 812 814 815 816
796 799 801 803 806 808 810 812 813 812 811 811 811 812 813 813 814 814 814 813 813 814 814 813 811 809 807 805 804 802 800 800 801 801 803 804 804 807 812 811 812 815 815
790 795 798 800 803 806 808 810 811 811 810 810 810 812 812 813 814 814 814 814 813 813 812 812 811 808 805 802 803 802 803 803 801 801 800 803 804 807 809 809 810 811 813
788 789 793 797 800 803 806 808 810 810 810 810 811 811 812 812 813 814 814 814 814 813 812 812 810 807 804 804 802 801 805 805 803 802 799 799 801 802 803 805 808 808 810
782 786 790 793 796 800 803 805 807 808 809 810 810 811 810 811 812 813 813 812 811 812 810 809 809 807 806 805 804 801 800 801 804 802 799 798 800 801 802 803 804 805 806
780 783 786 790 793 796 799 802 804 806 807 808 809 809 807 809 810 811 810 810 809 809 809 809 808 806 805 803 802 803 802 800 799 801 802 800 799 800 801 802 802 803 804
778 781 784 787 790 793 796 799 802 803 805 806 807 808 808 808 808 808 807 806 805 806 807 808 807 804 803 801 800 800 798 798 798 799 801 798 800 798 799 800 801 803 804